Year,Month,Day,Hour,Minute,Value (Times are PST for temperature in C)
2014,09,12,00,00,9.60
2014,09,12,00,01,9.60
2014,09,12,00,02,9.60
2014,09,12,00,03,9.60
2014,09,12,00,04,9.60
2014,09,12,00,05,9.60
2014,09,12,00,06,9.60
2014,09,12,00,07,9.60
2014,09,12,00,08,9.60
2014,09,12,00,09,9.60
2014,09,12,00,10,9.50
2014,09,12,00,11,9.50
2014,09,12,00,12,9.40
2014,09,12,00,13,9.40
2014,09,12,00,14,9.40
2014,09,12,00,15,9.40
2014,09,12,00,16,9.40
2014,09,12,00,17,9.30
2014,09,12,00,18,9.30
2014,09,12,00,19,9.30
2014,09,12,00,20,9.30
2014,09,12,00,21,9.30
2014,09,12,00,22,9.30
2014,09,12,00,23,9.30
2014,09,12,00,24,9.30
2014,09,12,00,25,9.20
2014,09,12,00,26,9.20
2014,09,12,00,27,9.10
2014,09,12,00,28,9.10
2014,09,12,00,29,9.00
2014,09,12,00,30,9.00
2014,09,12,00,31,9.00
2014,09,12,00,32,8.90
2014,09,12,00,33,8.90
2014,09,12,00,34,8.90
2014,09,12,00,35,8.90
2014,09,12,00,36,8.90
2014,09,12,00,37,8.90
2014,09,12,00,38,8.90
2014,09,12,00,39,8.80
2014,09,12,00,40,8.80
2014,09,12,00,41,8.80
2014,09,12,00,42,8.80
2014,09,12,00,43,8.70
2014,09,12,00,44,8.70
2014,09,12,00,45,8.70
2014,09,12,00,46,8.60
2014,09,12,00,47,8.60
2014,09,12,00,48,8.50
2014,09,12,00,49,8.50
2014,09,12,00,50,8.50
2014,09,12,00,51,8.40
2014,09,12,00,52,8.40
2014,09,12,00,53,8.40
2014,09,12,00,54,8.40
2014,09,12,00,55,8.40
2014,09,12,00,56,8.30
2014,09,12,00,57,8.30
2014,09,12,00,58,8.30
2014,09,12,00,59,8.30
2014,09,12,01,00,8.30
2014,09,12,01,01,8.20
2014,09,12,01,02,8.20
2014,09,12,01,03,8.20
2014,09,12,01,04,8.20
2014,09,12,01,05,8.10
2014,09,12,01,06,8.10
2014,09,12,01,07,8.10
2014,09,12,01,08,8.10
2014,09,12,01,09,8.10
2014,09,12,01,10,8.00
2014,09,12,01,11,8.00
2014,09,12,01,12,8.00
2014,09,12,01,13,8.00
2014,09,12,01,14,7.90
2014,09,12,01,15,7.90
2014,09,12,01,16,7.90
2014,09,12,01,17,7.90
2014,09,12,01,18,7.90
2014,09,12,01,19,7.90
2014,09,12,01,20,7.90
2014,09,12,01,21,7.80
2014,09,12,01,22,7.80
2014,09,12,01,23,7.80
2014,09,12,01,24,7.80
2014,09,12,01,25,7.80
2014,09,12,01,26,7.80
2014,09,12,01,27,7.80
2014,09,12,01,28,7.80
2014,09,12,01,29,7.80
2014,09,12,01,30,7.80
2014,09,12,01,31,7.80
2014,09,12,01,32,7.80
2014,09,12,01,33,7.80
2014,09,12,01,34,7.80
2014,09,12,01,35,7.90
2014,09,12,01,36,7.90
2014,09,12,01,37,7.90
2014,09,12,01,38,7.90
2014,09,12,01,39,7.90
2014,09,12,01,40,7.80
2014,09,12,01,41,7.80
2014,09,12,01,42,7.80
2014,09,12,01,43,7.80
2014,09,12,01,44,7.80
2014,09,12,01,45,7.80
2014,09,12,01,46,7.80
2014,09,12,01,47,7.70
2014,09,12,01,48,7.70
2014,09,12,01,49,7.70
2014,09,12,01,50,7.70
2014,09,12,01,51,7.60
2014,09,12,01,52,7.60
2014,09,12,01,53,7.60
2014,09,12,01,54,7.60
2014,09,12,01,55,7.60
2014,09,12,01,56,7.60
2014,09,12,01,57,7.60
2014,09,12,01,58,7.60
2014,09,12,01,59,7.60
2014,09,12,02,00,7.60
2014,09,12,02,01,7.60
2014,09,12,02,02,7.50
2014,09,12,02,03,7.50
2014,09,12,02,04,7.50
2014,09,12,02,05,7.40
2014,09,12,02,06,7.40
2014,09,12,02,07,7.40
2014,09,12,02,08,7.40
2014,09,12,02,09,7.40
2014,09,12,02,10,7.30
2014,09,12,02,11,7.30
2014,09,12,02,12,7.30
2014,09,12,02,13,7.30
2014,09,12,02,14,7.30
2014,09,12,02,15,7.20
2014,09,12,02,16,7.20
2014,09,12,02,17,7.20
2014,09,12,02,18,7.20
2014,09,12,02,19,7.20
2014,09,12,02,20,7.10
2014,09,12,02,21,7.10
2014,09,12,02,22,7.10
2014,09,12,02,23,7.00
2014,09,12,02,24,7.00
2014,09,12,02,25,7.00
2014,09,12,02,26,7.00
2014,09,12,02,27,7.00
2014,09,12,02,28,6.90
2014,09,12,02,29,6.90
2014,09,12,02,30,6.90
2014,09,12,02,31,6.90
2014,09,12,02,32,6.90
2014,09,12,02,33,6.90
2014,09,12,02,34,6.90
2014,09,12,02,35,6.90
2014,09,12,02,36,6.80
2014,09,12,02,37,6.80
2014,09,12,02,38,6.80
2014,09,12,02,39,6.80
2014,09,12,02,40,6.80
2014,09,12,02,41,6.80
2014,09,12,02,42,6.80
2014,09,12,02,43,6.70
2014,09,12,02,44,6.70
2014,09,12,02,45,6.70
2014,09,12,02,46,6.70
2014,09,12,02,47,6.70
2014,09,12,02,48,6.70
2014,09,12,02,49,6.70
2014,09,12,02,50,6.70
2014,09,12,02,51,6.70
2014,09,12,02,52,6.70
2014,09,12,02,53,6.70
2014,09,12,02,54,6.80
2014,09,12,02,55,6.80
2014,09,12,02,56,6.80
2014,09,12,02,57,6.80
2014,09,12,02,58,6.80
2014,09,12,02,59,6.80
2014,09,12,03,00,6.80
2014,09,12,03,01,6.90
2014,09,12,03,02,6.90
2014,09,12,03,03,6.90
2014,09,12,03,04,6.90
2014,09,12,03,05,6.90
2014,09,12,03,06,6.90
2014,09,12,03,07,6.90
2014,09,12,03,08,6.90
2014,09,12,03,09,6.80
2014,09,12,03,10,6.80
2014,09,12,03,11,6.80
2014,09,12,03,12,6.80
2014,09,12,03,13,6.80
2014,09,12,03,14,6.80
2014,09,12,03,15,6.80
2014,09,12,03,16,6.80
2014,09,12,03,17,6.90
2014,09,12,03,18,6.90
2014,09,12,03,19,6.90
2014,09,12,03,20,6.90
2014,09,12,03,21,6.90
2014,09,12,03,22,6.90
2014,09,12,03,23,6.90
2014,09,12,03,24,6.90
2014,09,12,03,25,6.90
2014,09,12,03,26,6.90
2014,09,12,03,27,6.90
2014,09,12,03,28,6.90
2014,09,12,03,29,6.90
2014,09,12,03,30,6.90
2014,09,12,03,31,6.90
2014,09,12,03,32,6.90
2014,09,12,03,33,6.90
2014,09,12,03,34,6.90
2014,09,12,03,35,6.90
2014,09,12,03,36,6.90
2014,09,12,03,37,6.90
2014,09,12,03,38,6.90
2014,09,12,03,39,6.90
2014,09,12,03,40,6.90
2014,09,12,03,41,6.90
2014,09,12,03,42,6.80
2014,09,12,03,43,6.80
2014,09,12,03,44,6.80
2014,09,12,03,45,6.80
2014,09,12,03,46,6.80
2014,09,12,03,47,6.80
2014,09,12,03,48,6.80
2014,09,12,03,49,6.80
2014,09,12,03,50,6.80
2014,09,12,03,51,6.80
2014,09,12,03,52,6.80
2014,09,12,03,53,6.80
2014,09,12,03,54,6.80
2014,09,12,03,55,6.80
2014,09,12,03,56,6.80
2014,09,12,03,57,6.80
2014,09,12,03,58,6.80
2014,09,12,03,59,6.80
2014,09,12,04,00,6.80
2014,09,12,04,01,6.80
2014,09,12,04,02,6.80
2014,09,12,04,03,6.70
2014,09,12,04,04,6.70
2014,09,12,04,05,6.70
2014,09,12,04,06,6.70
2014,09,12,04,07,6.70
2014,09,12,04,08,6.70
2014,09,12,04,09,6.70
2014,09,12,04,10,6.70
2014,09,12,04,11,6.70
2014,09,12,04,12,6.70
2014,09,12,04,13,6.60
2014,09,12,04,14,6.60
2014,09,12,04,15,6.60
2014,09,12,04,16,6.60
2014,09,12,04,17,6.60
2014,09,12,04,18,6.60
2014,09,12,04,19,6.60
2014,09,12,04,20,6.60
2014,09,12,04,21,6.60
2014,09,12,04,22,6.60
2014,09,12,04,23,6.60
2014,09,12,04,24,6.60
2014,09,12,04,25,6.70
2014,09,12,04,26,6.70
2014,09,12,04,27,6.70
2014,09,12,04,28,6.70
2014,09,12,04,29,6.70
2014,09,12,04,30,6.70
2014,09,12,04,31,6.70
2014,09,12,04,32,6.70
2014,09,12,04,33,6.70
2014,09,12,04,34,6.70
2014,09,12,04,35,6.70
2014,09,12,04,36,6.70
2014,09,12,04,37,6.60
2014,09,12,04,38,6.60
2014,09,12,04,39,6.60
2014,09,12,04,40,6.60
2014,09,12,04,41,6.50
2014,09,12,04,42,6.50
2014,09,12,04,43,6.50
2014,09,12,04,44,6.40
2014,09,12,04,45,6.40
2014,09,12,04,46,6.40
2014,09,12,04,47,6.40
2014,09,12,04,48,6.40
2014,09,12,04,49,6.40
2014,09,12,04,50,6.40
2014,09,12,04,51,6.40
2014,09,12,04,52,6.40
2014,09,12,04,53,6.40
2014,09,12,04,54,6.40
2014,09,12,04,55,6.30
2014,09,12,04,56,6.30
2014,09,12,04,57,6.30
2014,09,12,04,58,6.30
2014,09,12,04,59,6.30
2014,09,12,05,00,6.30
2014,09,12,05,01,6.20
2014,09,12,05,02,6.20
2014,09,12,05,03,6.20
2014,09,12,05,04,6.20
2014,09,12,05,05,6.20
2014,09,12,05,06,6.20
2014,09,12,05,07,6.20
2014,09,12,05,08,6.30
2014,09,12,05,09,6.30
2014,09,12,05,10,6.30
2014,09,12,05,11,6.30
2014,09,12,05,12,6.30
2014,09,12,05,13,6.30
2014,09,12,05,14,6.30
2014,09,12,05,15,6.30
2014,09,12,05,16,6.30
2014,09,12,05,17,6.20
2014,09,12,05,18,6.20
2014,09,12,05,19,6.20
2014,09,12,05,20,6.20
2014,09,12,05,21,6.20
2014,09,12,05,22,6.10
2014,09,12,05,23,6.10
2014,09,12,05,24,6.10
2014,09,12,05,25,6.10
2014,09,12,05,26,6.10
2014,09,12,05,27,6.10
2014,09,12,05,28,6.10
2014,09,12,05,29,6.10
2014,09,12,05,30,6.20
2014,09,12,05,31,6.20
2014,09,12,05,32,6.20
2014,09,12,05,33,6.20
2014,09,12,05,34,6.30
2014,09,12,05,35,6.30
2014,09,12,05,36,6.40
2014,09,12,05,37,6.50
2014,09,12,05,38,6.50
2014,09,12,05,39,6.60
2014,09,12,05,40,6.70
2014,09,12,05,41,6.80
2014,09,12,05,42,6.80
2014,09,12,05,43,6.90
2014,09,12,05,44,6.90
2014,09,12,05,45,7.00
2014,09,12,05,46,7.00
2014,09,12,05,47,7.00
2014,09,12,05,48,7.00
2014,09,12,05,49,7.00
2014,09,12,05,50,7.00
2014,09,12,05,51,7.00
2014,09,12,05,52,7.10
2014,09,12,05,53,7.10
2014,09,12,05,54,7.10
2014,09,12,05,55,7.10
2014,09,12,05,56,7.10
2014,09,12,05,57,7.10
2014,09,12,05,58,7.20
2014,09,12,05,59,7.10
2014,09,12,06,00,7.10
2014,09,12,06,01,7.10
2014,09,12,06,02,7.10
2014,09,12,06,03,7.10
2014,09,12,06,04,7.00
2014,09,12,06,05,7.00
2014,09,12,06,06,6.90
2014,09,12,06,07,6.90
2014,09,12,06,08,6.90
2014,09,12,06,09,6.80
2014,09,12,06,10,6.80
2014,09,12,06,11,6.80
2014,09,12,06,12,6.80
2014,09,12,06,13,6.80
2014,09,12,06,14,6.90
2014,09,12,06,15,6.90
2014,09,12,06,16,7.00
2014,09,12,06,17,7.00
2014,09,12,06,18,7.10
2014,09,12,06,19,7.20
2014,09,12,06,20,7.30
2014,09,12,06,21,7.40
2014,09,12,06,22,7.50
2014,09,12,06,23,7.60
2014,09,12,06,24,7.70
2014,09,12,06,25,7.70
2014,09,12,06,26,7.80
2014,09,12,06,27,7.90
2014,09,12,06,28,7.90
2014,09,12,06,29,8.00
2014,09,12,06,30,8.10
2014,09,12,06,31,8.10
2014,09,12,06,32,8.20
2014,09,12,06,33,8.30
2014,09,12,06,34,8.30
2014,09,12,06,35,8.30
2014,09,12,06,36,8.30
2014,09,12,06,37,8.30
2014,09,12,06,38,8.30
2014,09,12,06,39,8.30
2014,09,12,06,40,8.30
2014,09,12,06,41,8.30
2014,09,12,06,42,8.30
2014,09,12,06,43,8.30
2014,09,12,06,44,8.20
2014,09,12,06,45,8.20
2014,09,12,06,46,8.10
2014,09,12,06,47,8.00
2014,09,12,06,48,8.00
2014,09,12,06,49,7.90
2014,09,12,06,50,7.90
2014,09,12,06,51,7.80
2014,09,12,06,52,7.80
2014,09,12,06,53,7.80
2014,09,12,06,54,7.90
2014,09,12,06,55,7.90
2014,09,12,06,56,8.00
2014,09,12,06,57,8.00
2014,09,12,06,58,8.00
2014,09,12,06,59,8.00
2014,09,12,07,00,8.10
2014,09,12,07,01,8.10
2014,09,12,07,02,8.20
2014,09,12,07,03,8.30
2014,09,12,07,04,8.40
2014,09,12,07,05,8.50
2014,09,12,07,06,8.50
2014,09,12,07,07,8.60
2014,09,12,07,08,8.70
2014,09,12,07,09,8.80
2014,09,12,07,10,8.90
2014,09,12,07,11,9.00
2014,09,12,07,12,9.00
2014,09,12,07,13,9.10
2014,09,12,07,14,9.10
2014,09,12,07,15,9.20
2014,09,12,07,16,9.20
2014,09,12,07,17,9.30
2014,09,12,07,18,9.30
2014,09,12,07,19,9.30
2014,09,12,07,20,9.30
2014,09,12,07,21,9.30
2014,09,12,07,22,9.30
2014,09,12,07,23,9.40
2014,09,12,07,24,9.40
2014,09,12,07,25,9.40
2014,09,12,07,26,9.50
2014,09,12,07,27,9.50
2014,09,12,07,28,9.50
2014,09,12,07,29,9.50
2014,09,12,07,30,9.50
2014,09,12,07,31,9.50
2014,09,12,07,32,9.60
2014,09,12,07,33,9.60
2014,09,12,07,34,9.60
2014,09,12,07,35,9.70
2014,09,12,07,36,9.70
2014,09,12,07,37,9.70
2014,09,12,07,38,9.70
2014,09,12,07,39,9.70
2014,09,12,07,40,9.70
2014,09,12,07,41,9.70
2014,09,12,07,42,9.70
2014,09,12,07,43,9.70
2014,09,12,07,44,9.70
2014,09,12,07,45,9.70
2014,09,12,07,46,9.70
2014,09,12,07,47,9.70
2014,09,12,07,48,9.60
2014,09,12,07,49,9.70
2014,09,12,07,50,9.70
2014,09,12,07,51,9.70
2014,09,12,07,52,9.70
2014,09,12,07,53,9.80
2014,09,12,07,54,9.80
2014,09,12,07,55,9.80
2014,09,12,07,56,9.90
2014,09,12,07,57,10.00
2014,09,12,07,58,10.10
2014,09,12,07,59,10.10
2014,09,12,08,00,10.20
2014,09,12,08,01,10.30
2014,09,12,08,02,10.40
2014,09,12,08,03,10.50
2014,09,12,08,04,10.50
2014,09,12,08,05,10.60
2014,09,12,08,06,10.70
2014,09,12,08,07,10.80
2014,09,12,08,08,10.80
2014,09,12,08,09,10.90
2014,09,12,08,10,11.00
2014,09,12,08,11,11.10
2014,09,12,08,12,11.20
2014,09,12,08,13,11.20
2014,09,12,08,14,11.30
2014,09,12,08,15,11.40
2014,09,12,08,16,11.50
2014,09,12,08,17,11.50
2014,09,12,08,18,11.60
2014,09,12,08,19,11.60
2014,09,12,08,20,11.70
2014,09,12,08,21,11.80
2014,09,12,08,22,11.90
2014,09,12,08,23,11.90
2014,09,12,08,24,12.00
2014,09,12,08,25,12.10
2014,09,12,08,26,12.20
2014,09,12,08,27,12.20
2014,09,12,08,28,12.30
2014,09,12,08,29,12.30
2014,09,12,08,30,12.40
2014,09,12,08,31,12.50
2014,09,12,08,32,12.60
2014,09,12,08,33,12.60
2014,09,12,08,34,12.70
2014,09,12,08,35,12.80
2014,09,12,08,36,12.80
2014,09,12,08,37,12.90
2014,09,12,08,38,12.90
2014,09,12,08,39,13.00
2014,09,12,08,40,13.00
2014,09,12,08,41,13.10
2014,09,12,08,42,13.10
2014,09,12,08,43,13.10
2014,09,12,08,44,13.10
2014,09,12,08,45,13.20
2014,09,12,08,46,13.20
2014,09,12,08,47,13.30
2014,09,12,08,48,13.30
2014,09,12,08,49,13.40
2014,09,12,08,50,13.40
2014,09,12,08,51,13.50
2014,09,12,08,52,13.50
2014,09,12,08,53,13.60
2014,09,12,08,54,13.60
2014,09,12,08,55,13.70
2014,09,12,08,56,13.70
2014,09,12,08,57,13.70
2014,09,12,08,58,13.80
2014,09,12,08,59,13.80
2014,09,12,09,00,13.80
2014,09,12,09,01,13.90
2014,09,12,09,02,13.90
2014,09,12,09,03,13.90
2014,09,12,09,04,14.00
2014,09,12,09,05,14.10
2014,09,12,09,06,14.10
2014,09,12,09,07,14.20
2014,09,12,09,08,14.20
2014,09,12,09,09,14.30
2014,09,12,09,10,14.30
2014,09,12,09,11,14.30
2014,09,12,09,12,14.40
2014,09,12,09,13,14.50
2014,09,12,09,14,14.50
2014,09,12,09,15,14.60
2014,09,12,09,16,14.60
2014,09,12,09,17,14.70
2014,09,12,09,18,14.80
2014,09,12,09,19,14.80
2014,09,12,09,20,14.90
2014,09,12,09,21,15.00
2014,09,12,09,22,15.00
2014,09,12,09,23,15.00
2014,09,12,09,24,15.00
2014,09,12,09,25,15.00
2014,09,12,09,26,15.00
2014,09,12,09,27,15.00
2014,09,12,09,28,15.00
2014,09,12,09,29,15.00
2014,09,12,09,30,15.10
2014,09,12,09,31,15.20
2014,09,12,09,32,15.20
2014,09,12,09,33,15.20
2014,09,12,09,34,15.30
2014,09,12,09,35,15.30
2014,09,12,09,36,15.40
2014,09,12,09,37,15.50
2014,09,12,09,38,15.50
2014,09,12,09,39,15.60
2014,09,12,09,40,15.60
2014,09,12,09,41,15.70
2014,09,12,09,42,15.70
2014,09,12,09,43,15.80
2014,09,12,09,44,15.80
2014,09,12,09,45,15.80
2014,09,12,09,46,15.90
2014,09,12,09,47,16.00
2014,09,12,09,48,16.00
2014,09,12,09,49,16.10
2014,09,12,09,50,16.20
2014,09,12,09,51,16.30
2014,09,12,09,52,16.40
2014,09,12,09,53,16.50
2014,09,12,09,54,16.60
2014,09,12,09,55,16.70
2014,09,12,09,56,16.80
2014,09,12,09,57,16.90
2014,09,12,09,58,16.90
2014,09,12,09,59,17.00
2014,09,12,10,00,17.10
2014,09,12,10,01,17.10
2014,09,12,10,02,17.20
2014,09,12,10,03,17.20
2014,09,12,10,04,17.30
2014,09,12,10,05,17.30
2014,09,12,10,06,17.30
2014,09,12,10,07,17.30
2014,09,12,10,08,17.30
2014,09,12,10,09,17.40
2014,09,12,10,10,17.40
2014,09,12,10,11,17.50
2014,09,12,10,12,17.60
2014,09,12,10,13,17.60
2014,09,12,10,14,17.60
2014,09,12,10,15,17.60
2014,09,12,10,16,17.60
2014,09,12,10,17,17.70
2014,09,12,10,18,17.70
2014,09,12,10,19,17.80
2014,09,12,10,20,17.80
2014,09,12,10,21,17.80
2014,09,12,10,22,17.90
2014,09,12,10,23,17.90
2014,09,12,10,24,18.00
2014,09,12,10,25,18.00
2014,09,12,10,26,18.10
2014,09,12,10,27,18.20
2014,09,12,10,28,18.20
2014,09,12,10,29,18.20
2014,09,12,10,30,18.20
2014,09,12,10,31,18.30
2014,09,12,10,32,18.30
2014,09,12,10,33,18.40
2014,09,12,10,34,18.50
2014,09,12,10,35,18.60
2014,09,12,10,36,18.60
2014,09,12,10,37,18.70
2014,09,12,10,38,18.70
2014,09,12,10,39,18.70
2014,09,12,10,40,18.70
2014,09,12,10,41,18.70
2014,09,12,10,42,18.80
2014,09,12,10,43,18.90
2014,09,12,10,44,18.90
2014,09,12,10,45,19.00
2014,09,12,10,46,19.00
2014,09,12,10,47,19.10
2014,09,12,10,48,19.10
2014,09,12,10,49,19.10
2014,09,12,10,50,19.10
2014,09,12,10,51,19.10
2014,09,12,10,52,19.10
2014,09,12,10,53,19.10
2014,09,12,10,54,19.10
2014,09,12,10,55,19.10
2014,09,12,10,56,19.00
2014,09,12,10,57,19.00
2014,09,12,10,58,19.00
2014,09,12,10,59,19.00
2014,09,12,11,00,18.90
2014,09,12,11,01,19.00
2014,09,12,11,02,19.00
2014,09,12,11,03,19.00
2014,09,12,11,04,19.10
2014,09,12,11,05,19.20
2014,09,12,11,06,19.20
2014,09,12,11,07,19.30
2014,09,12,11,08,19.30
2014,09,12,11,09,19.30
2014,09,12,11,10,19.40
2014,09,12,11,11,19.40
2014,09,12,11,12,19.40
2014,09,12,11,13,19.40
2014,09,12,11,14,19.50
2014,09,12,11,15,19.50
2014,09,12,11,16,19.60
2014,09,12,11,17,19.60
2014,09,12,11,18,19.70
2014,09,12,11,19,19.60
2014,09,12,11,20,19.60
2014,09,12,11,21,19.60
2014,09,12,11,22,19.60
2014,09,12,11,23,19.60
2014,09,12,11,24,19.50
2014,09,12,11,25,19.50
2014,09,12,11,26,19.60
2014,09,12,11,27,19.60
2014,09,12,11,28,19.60
2014,09,12,11,29,19.60
2014,09,12,11,30,19.70
2014,09,12,11,31,19.70
2014,09,12,11,32,19.80
2014,09,12,11,33,19.80
2014,09,12,11,34,19.80
2014,09,12,11,35,19.80
2014,09,12,11,36,19.90
2014,09,12,11,37,19.90
2014,09,12,11,38,19.90
2014,09,12,11,39,19.90
2014,09,12,11,40,19.90
2014,09,12,11,41,19.90
2014,09,12,11,42,20.00
2014,09,12,11,43,20.00
2014,09,12,11,44,20.10
2014,09,12,11,45,20.10
2014,09,12,11,46,20.20
2014,09,12,11,47,20.20
2014,09,12,11,48,20.20
2014,09,12,11,49,20.20
2014,09,12,11,50,20.20
2014,09,12,11,51,20.30
2014,09,12,11,52,20.30
2014,09,12,11,53,20.40
2014,09,12,11,54,20.40
2014,09,12,11,55,20.40
2014,09,12,11,56,20.40
2014,09,12,11,57,20.50
2014,09,12,11,58,20.50
2014,09,12,11,59,20.60
2014,09,12,12,00,20.50
2014,09,12,12,01,20.60
2014,09,12,12,02,20.60
2014,09,12,12,03,20.60
2014,09,12,12,04,20.70
2014,09,12,12,05,20.70
2014,09,12,12,06,20.80
2014,09,12,12,07,20.90
2014,09,12,12,08,20.90
2014,09,12,12,09,20.90
2014,09,12,12,10,20.90
2014,09,12,12,11,20.80
2014,09,12,12,12,20.80
2014,09,12,12,13,20.80
2014,09,12,12,14,20.80
2014,09,12,12,15,20.80
2014,09,12,12,16,20.80
2014,09,12,12,17,20.90
2014,09,12,12,18,20.90
2014,09,12,12,19,21.00
2014,09,12,12,20,21.00
2014,09,12,12,21,20.90
2014,09,12,12,22,21.00
2014,09,12,12,23,21.00
2014,09,12,12,24,21.10
2014,09,12,12,25,21.10
2014,09,12,12,26,21.10
2014,09,12,12,27,21.10
2014,09,12,12,28,21.10
2014,09,12,12,29,21.10
2014,09,12,12,30,21.10
2014,09,12,12,31,21.20
2014,09,12,12,32,21.30
2014,09,12,12,33,21.30
2014,09,12,12,34,21.30
2014,09,12,12,35,21.40
2014,09,12,12,36,21.40
2014,09,12,12,37,21.40
2014,09,12,12,38,21.40
2014,09,12,12,39,21.40
2014,09,12,12,40,21.50
2014,09,12,12,41,21.50
2014,09,12,12,42,21.60
2014,09,12,12,43,21.80
2014,09,12,12,44,21.80
2014,09,12,12,45,21.90
2014,09,12,12,46,22.00
2014,09,12,12,47,22.00
2014,09,12,12,48,22.00
2014,09,12,12,49,21.90
2014,09,12,12,50,22.00
2014,09,12,12,51,22.00
2014,09,12,12,52,22.10
2014,09,12,12,53,22.20
2014,09,12,12,54,22.30
2014,09,12,12,55,22.30
2014,09,12,12,56,22.30
2014,09,12,12,57,22.30
2014,09,12,12,58,22.20
2014,09,12,12,59,22.30
2014,09,12,13,00,22.30
2014,09,12,13,01,22.30
2014,09,12,13,02,22.30
2014,09,12,13,03,22.40
2014,09,12,13,04,22.40
2014,09,12,13,05,22.40
2014,09,12,13,06,22.40
2014,09,12,13,07,22.40
2014,09,12,13,08,22.40
2014,09,12,13,09,22.30
2014,09,12,13,10,22.30
2014,09,12,13,11,22.40
2014,09,12,13,12,22.50
2014,09,12,13,13,22.60
2014,09,12,13,14,22.70
2014,09,12,13,15,22.80
2014,09,12,13,16,22.80
2014,09,12,13,17,22.80
2014,09,12,13,18,22.70
2014,09,12,13,19,22.70
2014,09,12,13,20,22.80
2014,09,12,13,21,22.80
2014,09,12,13,22,22.80
2014,09,12,13,23,22.80
2014,09,12,13,24,22.90
2014,09,12,13,25,23.00
2014,09,12,13,26,23.00
2014,09,12,13,27,23.00
2014,09,12,13,28,23.00
2014,09,12,13,29,23.10
2014,09,12,13,30,23.00
2014,09,12,13,31,23.00
2014,09,12,13,32,23.00
2014,09,12,13,33,22.90
2014,09,12,13,34,22.80
2014,09,12,13,35,22.80
2014,09,12,13,36,22.80
2014,09,12,13,37,22.90
2014,09,12,13,38,22.90
2014,09,12,13,39,23.00
2014,09,12,13,40,23.10
2014,09,12,13,41,23.10
2014,09,12,13,42,23.20
2014,09,12,13,43,23.20
2014,09,12,13,44,23.20
2014,09,12,13,45,23.20
2014,09,12,13,46,23.10
2014,09,12,13,47,23.10
2014,09,12,13,48,23.10
2014,09,12,13,49,23.10
2014,09,12,13,50,23.10
2014,09,12,13,51,23.10
2014,09,12,13,52,23.10
2014,09,12,13,53,23.20
2014,09,12,13,54,23.20
2014,09,12,13,55,23.20
2014,09,12,13,56,23.20
2014,09,12,13,57,23.20
2014,09,12,13,58,23.20
2014,09,12,13,59,23.10
2014,09,12,14,00,23.00
2014,09,12,14,01,23.00
2014,09,12,14,02,23.00
2014,09,12,14,03,23.00
2014,09,12,14,04,23.00
2014,09,12,14,05,23.10
2014,09,12,14,06,23.00
2014,09,12,14,07,23.00
2014,09,12,14,08,23.10
2014,09,12,14,09,23.10
2014,09,12,14,10,23.10
2014,09,12,14,11,23.10
2014,09,12,14,12,23.10
2014,09,12,14,13,23.10
2014,09,12,14,14,23.20
2014,09,12,14,15,23.20
2014,09,12,14,16,23.20
2014,09,12,14,17,23.20
2014,09,12,14,18,23.20
2014,09,12,14,19,23.20
2014,09,12,14,20,23.20
2014,09,12,14,21,23.20
2014,09,12,14,22,23.30
2014,09,12,14,23,23.30
2014,09,12,14,24,23.30
2014,09,12,14,25,23.30
2014,09,12,14,26,23.30
2014,09,12,14,27,23.40
2014,09,12,14,28,23.40
2014,09,12,14,29,23.40
2014,09,12,14,30,23.40
2014,09,12,14,31,23.40
2014,09,12,14,32,23.50
2014,09,12,14,33,23.50
2014,09,12,14,34,23.50
2014,09,12,14,35,23.50
2014,09,12,14,36,23.50
2014,09,12,14,37,23.60
2014,09,12,14,38,23.60
2014,09,12,14,39,23.60
2014,09,12,14,40,23.70
2014,09,12,14,41,23.70
2014,09,12,14,42,23.80
2014,09,12,14,43,23.90
2014,09,12,14,44,24.00
2014,09,12,14,45,24.10
2014,09,12,14,46,24.30
2014,09,12,14,47,24.40
2014,09,12,14,48,24.40
2014,09,12,14,49,24.40
2014,09,12,14,50,24.30
2014,09,12,14,51,24.30
2014,09,12,14,52,24.30
2014,09,12,14,53,24.20
2014,09,12,14,54,24.10
2014,09,12,14,55,24.10
2014,09,12,14,56,24.10
2014,09,12,14,57,24.00
2014,09,12,14,58,23.90
2014,09,12,14,59,23.80
2014,09,12,15,00,23.70
2014,09,12,15,01,23.70
2014,09,12,15,02,23.70
2014,09,12,15,03,23.70
2014,09,12,15,04,23.70
2014,09,12,15,05,23.80
2014,09,12,15,06,23.80
2014,09,12,15,07,23.80
2014,09,12,15,08,23.90
2014,09,12,15,09,23.90
2014,09,12,15,10,23.90
2014,09,12,15,11,24.00
2014,09,12,15,12,24.00
2014,09,12,15,13,24.10
2014,09,12,15,14,24.10
2014,09,12,15,15,24.10
2014,09,12,15,16,24.10
2014,09,12,15,17,24.20
2014,09,12,15,18,24.30
2014,09,12,15,19,24.40
2014,09,12,15,20,24.50
2014,09,12,15,21,24.70
2014,09,12,15,22,24.80
2014,09,12,15,23,24.80
2014,09,12,15,24,24.70
2014,09,12,15,25,24.60
2014,09,12,15,26,24.60
2014,09,12,15,27,24.70
2014,09,12,15,28,24.60
2014,09,12,15,29,24.50
2014,09,12,15,30,24.40
2014,09,12,15,31,24.40
2014,09,12,15,32,24.50
2014,09,12,15,33,24.50
2014,09,12,15,34,24.40
2014,09,12,15,35,24.40
2014,09,12,15,36,24.50
2014,09,12,15,37,24.50
2014,09,12,15,38,24.40
2014,09,12,15,39,24.30
2014,09,12,15,40,24.30
2014,09,12,15,41,24.20
2014,09,12,15,42,24.20
2014,09,12,15,43,24.30
2014,09,12,15,44,24.30
2014,09,12,15,45,24.30
2014,09,12,15,46,24.40
2014,09,12,15,47,24.40
2014,09,12,15,48,24.40
2014,09,12,15,49,24.40
2014,09,12,15,50,24.40
2014,09,12,15,51,24.50
2014,09,12,15,52,24.60
2014,09,12,15,53,24.70
2014,09,12,15,54,24.70
2014,09,12,15,55,24.70
2014,09,12,15,56,24.80
2014,09,12,15,57,24.70
2014,09,12,15,58,24.70
2014,09,12,15,59,24.70
2014,09,12,16,00,24.60
2014,09,12,16,01,24.50
2014,09,12,16,02,24.50
2014,09,12,16,03,24.50
2014,09,12,16,04,24.50
2014,09,12,16,05,24.50
2014,09,12,16,06,24.50
2014,09,12,16,07,24.60
2014,09,12,16,08,24.60
2014,09,12,16,09,24.60
2014,09,12,16,10,24.50
2014,09,12,16,11,24.40
2014,09,12,16,12,24.40
2014,09,12,16,13,24.40
2014,09,12,16,14,24.50
2014,09,12,16,15,24.60
2014,09,12,16,16,24.70
2014,09,12,16,17,24.80
2014,09,12,16,18,24.80
2014,09,12,16,19,24.80
2014,09,12,16,20,24.90
2014,09,12,16,21,25.00
2014,09,12,16,22,25.00
2014,09,12,16,23,25.00
2014,09,12,16,24,25.00
2014,09,12,16,25,24.90
2014,09,12,16,26,24.70
2014,09,12,16,27,24.60
2014,09,12,16,28,24.50
2014,09,12,16,29,24.50
2014,09,12,16,30,24.40
2014,09,12,16,31,24.40
2014,09,12,16,32,24.30
2014,09,12,16,33,24.20
2014,09,12,16,34,24.10
2014,09,12,16,35,24.10
2014,09,12,16,36,24.00
2014,09,12,16,37,24.00
2014,09,12,16,38,24.00
2014,09,12,16,39,24.10
2014,09,12,16,40,24.10
2014,09,12,16,41,24.20
2014,09,12,16,42,24.20
2014,09,12,16,43,24.20
2014,09,12,16,44,24.20
2014,09,12,16,45,24.10
2014,09,12,16,46,24.00
2014,09,12,16,47,24.00
2014,09,12,16,48,23.90
2014,09,12,16,49,23.90
2014,09,12,16,50,23.90
2014,09,12,16,51,23.90
2014,09,12,16,52,23.90
2014,09,12,16,53,23.90
2014,09,12,16,54,23.90
2014,09,12,16,55,23.90
2014,09,12,16,56,23.90
2014,09,12,16,57,24.00
2014,09,12,16,58,24.10
2014,09,12,16,59,24.10
2014,09,12,17,00,24.00
2014,09,12,17,01,23.90
2014,09,12,17,02,24.00
2014,09,12,17,03,24.00
2014,09,12,17,04,24.10
2014,09,12,17,05,24.10
2014,09,12,17,06,24.10
2014,09,12,17,07,24.10
2014,09,12,17,08,24.10
2014,09,12,17,09,24.10
2014,09,12,17,10,24.20
2014,09,12,17,11,24.20
2014,09,12,17,12,24.20
2014,09,12,17,13,24.30
2014,09,12,17,14,24.30
2014,09,12,17,15,24.30
2014,09,12,17,16,24.30
2014,09,12,17,17,24.30
2014,09,12,17,18,24.30
2014,09,12,17,19,24.30
2014,09,12,17,20,24.20
2014,09,12,17,21,24.30
2014,09,12,17,22,24.20
2014,09,12,17,23,24.20
2014,09,12,17,24,24.20
2014,09,12,17,25,24.20
2014,09,12,17,26,24.20
2014,09,12,17,27,24.20
2014,09,12,17,28,24.20
2014,09,12,17,29,24.20
2014,09,12,17,30,24.20
2014,09,12,17,31,24.30
2014,09,12,17,32,24.30
2014,09,12,17,33,24.30
2014,09,12,17,34,24.30
2014,09,12,17,35,24.30
2014,09,12,17,36,24.30
2014,09,12,17,37,24.30
2014,09,12,17,38,24.20
2014,09,12,17,39,24.20
2014,09,12,17,40,24.20